GW5008 Weather Reports


time (UTC)temp
F
wind
direction
speed
knots
gust
knots
rain 1hr
in
rain 24hr
in
rain mn
in
humidity
%
barometer
mb
20260504201730 65 73 2.6 7.0 0.00 0.00 0.00 43 1007.4
20260504201227 67 12 4.3 12.2 0.00 0.00 0.00 42 1007.5
20260504200724 66 306 2.6 5.2 0.00 0.00 0.00 42 1007.6
20260504200220 65 308 3.5 8.7 0.00 0.00 0.00 42 1007.8
20260504195717 65 23 0.9 5.2 0.00 0.00 0.00 42 1007.8
20260504195213 65 343 0.9 5.2 0.00 0.00 0.00 42 1007.8
20260504194710 66 84 2.6 7.8 0.00 0.00 0.00 42 1007.5
20260504194206 66 66 5.2 7.0 0.00 0.00 0.00 40 1008.0
20260504193702 66 283 3.5 8.7 0.00 0.00 0.00 41 1007.9
20260504193200 67 83 1.7 12.2 0.00 0.00 0.00 40 1008.1
20260504192658 67 249 3.5 11.3 0.00 0.00 0.00 40 1008.0
20260504192156 67 44 3.5 11.3 0.00 0.00 0.00 40 1008.0
20260504191654 67 270 2.6 7.0 0.00 0.00 0.00 41 1008.1
20260504191150 66 217 1.7 6.1 0.00 0.00 0.00 41 1008.3
20260504190646 66 67 3.5 8.7 0.00 0.00 0.00 43 1008.3
20260504190143 65 330 8.7 13.9 0.00 0.00 0.00 43 1008.2
20260504185639 65 242 2.6 6.1 0.00 0.00 0.00 45 1008.4
20260504185136 66 324 6.1 7.8 0.00 0.00 0.00 43 1008.3
20260504184632 65 36 3.5 9.6 0.00 0.00 0.00 42 1008.2
20260504184127 65 85 4.3 14.8 0.00 0.00 0.00 44 1008.5
20260504183624 65 345 0.9 7.8 0.00 0.00 0.00 44 1008.4
20260504183122 65 111 2.6 11.3 0.00 0.00 0.00 43 1008.6
20260504182620 64 13 3.5 12.2 0.00 0.00 0.00 44 1008.6
20260504182117 65 142 5.2 13.0 0.00 0.00 0.00 44 1008.6
20260504181614 64 112 1.7 7.8 0.00 0.00 0.00 45 1008.6
20260504181111 65 49 3.5 11.3 0.00 0.00 0.00 44 1008.7
20260504180610 65 181 2.6 14.8 0.00 0.00 0.00 43 1008.9
20260504180109 64 284 2.6 7.0 0.00 0.00 0.00 46 1008.8
20260504175606 64 346 0.9 9.6 0.00 0.00 0.00 46 1008.9
20260504175102 64 89 3.5 3.5 0.00 0.00 0.00 45 1008.7
20260504174601 63 120 4.3 13.0 0.00 0.00 0.00 45 1009.0
20260504174057 64 290 1.7 5.2 0.00 0.00 0.00 44 1008.9
20260504173554 63 19 2.6 7.8 0.00 0.00 0.00 46 1008.7
20260504173052 63 290 6.1 11.3 0.00 0.00 0.00 45 1009.1
20260504172547 64 153 3.5 11.3 0.00 0.00 0.00 45 1008.8
20260504172044 63 313 7.8 13.9 0.00 0.00 0.00 43 1009.1
20260504171541 64 47 0.9 8.7 0.00 0.00 0.00 43 1009.1
20260504171038 62 358 2.6 12.2 0.00 0.00 0.00 46 1008.9
20260504170534 62 279 2.6 7.8 0.00 0.00 0.00 44 1009.0
20260504150918 57 328 2.6 6.1 0.00 0.00 0.00 47 1010.3
20260504150414 57 63 3.5 7.8 0.00 0.00 0.00 48 1010.3
20260504140841 53 284 1.7 3.5 0.00 0.00 0.00 48 1010.5
20260504140336 53 54 2.6 11.3 0.00 0.00 0.00 47 1010.6
20260504130806 53 303 2.6 9.6 0.00 0.00 0.00 45 1010.9
20260504130302 53 244 2.6 11.3 0.00 0.00 0.00 46 1010.8
20260504120225 49 253 0.0 5.2 0.00 0.00 0.00 49 1010.8
20260504110646 46 87 3.5 3.5 0.00 0.00 0.00 53 1010.9
20260504110143 46 323 2.6 2.6 0.00 0.00 0.00 55 1011.2
20260504100609 42 287 0.9 1.7 0.00 0.00 0.00 61 1010.8
20260504100107 42 201 0.9 1.7 0.00 0.00 0.00 61 1010.7
20260504082002 42 172 3.5 3.5 0.00 0.00 0.00 63 1011.2
20260504081500 42 90 3.5 5.2 0.00 0.00 0.00 63 1011.2
20260504080955 42 174 1.7 2.6 0.00 0.00 0.00 63 1011.3
20260504080452 42 284 0.0 2.6 0.00 0.00 0.00 63 1011.3
20260504050305 43 95 1.7 2.6 0.00 0.00 0.00 59 1011.3
20260504045803 43 48 0.0 2.6 0.00 0.00 0.00 59 1011.4
20260504045304 43 258 0.0 0.9 0.00 0.00 0.00 59 1011.4
20260504044800 43 37 0.9 3.5 0.00 0.00 0.00 59 1011.4
20260504044257 42 224 0.0 2.6 0.00 0.00 0.00 60 1011.4
20260504043754 42 119 0.0 1.7 0.00 0.00 0.00 60 1011.4
20260504043251 42 209 0.0 0.9 0.00 0.00 0.00 60 1011.4
20260504042749 43 94 0.0 0.9 0.00 0.00 0.00 60 1011.3
20260504042245 42 92 0.0 0.0 0.00 0.00 0.00 60 1011.3
20260504041741 43 83 0.9 2.6 0.00 0.00 0.00 59 1011.3
20260504041237 43 82 0.9 1.7 0.00 0.00 0.00 58 1011.0
20260504040734 43 129 0.9 1.7 0.00 0.00 0.00 59 1011.0
20260504040231 43 138 0.0 0.9 0.00 0.00 0.00 59 1011.2
20260504035727 43 269 0.9 0.9 0.00 0.00 0.00 60 1011.3
20260504035225 43 139 0.0 0.9 0.00 0.00 0.00 58 1011.2
20260504034722 43 277 0.0 2.6 0.00 0.00 0.00 59 1011.2
20260504034219 43 54 0.0 0.9 0.00 0.00 0.00 59 1011.2
20260504033717 43 76 0.0 2.6 0.00 0.00 0.00 58 1011.2
20260504033214 43 85 0.9 1.7 0.00 0.00 0.00 58 1011.2
20260504032711 43 74 0.9 1.7 0.00 0.00 0.00 57 1011.3
20260504032208 43 75 0.0 0.9 0.00 0.00 0.00 59 1011.2
20260504031705 43 80 0.9 0.9 0.00 0.00 0.00 58 1011.2
20260504031201 43 193 0.0 1.7 0.00 0.00 0.00 57 1011.4
20260504030658 43 98 0.0 1.7 0.00 0.00 0.00 57 1011.0
20260504030155 43 81 0.0 2.6 0.00 0.00 0.00 56 1011.3
20260504025651 43 308 0.0 0.9 0.00 0.00 0.00 57 1011.4
20260504025148 43 124 0.0 0.0 0.00 0.00 0.00 57 1011.2
20260504024646 43 352 0.0 0.9 0.00 0.00 0.00 56 1011.5
20260504024142 44 111 1.7 1.7 0.00 0.00 0.00 55 1011.5
20260504023639 43 58 0.0 2.6 0.00 0.00 0.00 56 1011.4
20260504023135 44 42 0.0 0.0 0.00 0.00 0.00 58 1011.4
20260504022631 44 74 0.9 1.7 0.00 0.00 0.00 55 1011.5
20260504022127 44 27 0.0 1.7 0.00 0.00 0.00 55 1011.4
20260504021625 43 181 0.0 0.9 0.00 0.00 0.00 56 1011.3
20260504021121 43 355 0.0 0.0 0.00 0.00 0.00 57 1011.4
20260504020619 44 95 0.9 0.9 0.00 0.00 0.00 55 1011.3
20260504020115 44 75 0.0 1.7 0.00 0.00 0.00 55 1011.0
20260504015611 44 72 0.0 0.9 0.00 0.00 0.00 54 1011.4
20260504015107 44 91 0.0 1.7 0.00 0.00 0.00 54 1011.2
20260504014603 44 79 0.0 0.9 0.00 0.00 0.00 54 1011.0
20260504014101 44 235 0.0 1.7 0.00 0.00 0.00 55 1011.3
20260504013558 45 130 0.0 1.7 0.00 0.00 0.00 53 1011.3
20260504013055 45 71 0.0 0.9 0.00 0.00 0.00 55 1011.3
20260504012552 44 86 0.0 2.6 0.00 0.00 0.00 54 1011.3
20260504012050 45 355 0.0 0.9 0.00 0.00 0.00 53 1011.2
20260504011547 44 108 0.0 0.0 0.00 0.00 0.00 53 1010.9
20260504011043 44 88 0.0 0.9 0.00 0.00 0.00 52 1011.2
20260504010539 45 86 0.0 0.0 0.00 0.00 0.00 52 1010.9
20260504010035 45 118 0.0 0.0 0.00 0.00 0.00 52 1010.9
20260504005532 46 355 0.0 0.0 0.00 0.00 0.00 52 1010.9
20260504005030 46 115 1.7 1.7 0.00 0.00 0.00 52 1010.8
20260504004527 46 62 0.0 0.9 0.00 0.00 0.00 51 1010.7
20260504004024 47 82 0.9 1.7 0.00 0.00 0.00 50 1010.8
20260504003520 47 103 1.7 3.5 0.00 0.00 0.00 48 1010.6
20260504003017 47 130 1.7 1.7 0.00 0.00 0.00 48 1010.6
20260504002514 48 103 1.7 2.6 0.00 0.00 0.00 47 1010.4
20260504002011 48 97 0.0 1.7 0.00 0.00 0.00 47 1010.5
20260504001509 48 114 2.6 3.5 0.00 0.00 0.00 46 1010.4
20260504001005 49 80 0.0 2.6 0.00 0.00 0.00 46 1010.5
20260504000502 49 79 0.0 5.2 0.00 0.00 0.00 46 1010.4
20260503235959 49 71 1.7 3.5 0.00 0.00 0.00 45 1010.4
20260503235457 49 96 2.6 3.5 0.00 0.00 0.00 45 1010.3
20260503234954 50 99 2.6 5.2 0.00 0.00 0.00 43 1010.4
20260503234452 51 89 0.9 6.1 0.00 0.00 0.00 44 1010.3
20260503233950 51 62 1.7 5.2 0.00 0.00 0.00 42 1010.2
20260503233446 52 68 4.3 7.0 0.00 0.00 0.00 41 1010.2
20260503232942 52 63 1.7 6.1 0.00 0.00 0.00 41 1010.3
20260503232439 52 126 5.2 7.0 0.00 0.00 0.00 42 1010.2
20260503231937 51 27 1.7 5.2 0.00 0.00 0.00 43 1010.2
20260503231434 51 61 2.6 8.7 0.00 0.00 0.00 44 1010.3
20260503230931 51 51 3.5 7.8 0.00 0.00 0.00 43 1010.2
20260503230427 51 56 2.6 5.2 0.00 0.00 0.00 43 1010.2
20260503225925 51 57 3.5 5.2 0.00 0.00 0.00 43 1010.3
20260503225422 51 65 6.1 8.7 0.00 0.00 0.00 41 1010.1
20260503224917 51 88 5.2 7.8 0.00 0.00 0.00 42 1010.0
20260503224414 51 339 3.5 7.0 0.00 0.00 0.00 43 1010.1
20260503223912 51 81 5.2 7.0 0.00 0.00 0.00 42 1010.1
20260503223410 51 67 4.3 7.8 0.00 0.00 0.00 43 1009.9
20260503222910 51 82 4.3 12.2 0.00 0.00 0.00 42 1010.0
20260503222409 51 316 2.6 6.1 0.00 0.00 0.00 42 1009.8
20260503221907 51 22 3.5 6.1 0.00 0.00 0.00 43 1010.1
20260503221405 51 79 6.1 8.7 0.00 0.00 0.00 42 1010.2
20260503220901 51 80 7.8 8.7 0.00 0.00 0.00 43 1010.2
20260503220358 52 80 7.0 8.7 0.00 0.00 0.00 42 1010.0
20260503215855 53 104 5.2 9.6 0.00 0.00 0.00 41 1010.2
20260503215352 53 139 3.5 7.0 0.00 0.00 0.00 43 1010.1
20260503214849 52 100 7.8 8.7 0.00 0.00 0.00 43 1010.1
20260503214347 51 80 3.5 6.1 0.00 0.00 0.00 43 1010.1
20260503213844 51 87 2.6 13.0 0.00 0.00 0.00 44 1010.3
20260503213341 51 171 4.3 9.6 0.00 0.00 0.00 44 1010.2
20260503212838 51 265 1.7 12.2 0.00 0.00 0.00 46 1010.0
20260503212336 51 87 7.0 13.0 0.00 0.00 0.00 43 1010.0
20260503211833 53 162 3.5 7.8 0.00 0.00 0.00 42 1010.1
20260503211330 52 150 1.7 7.0 0.00 0.00 0.00 46 1010.0
20260503210825 51 68 7.0 8.7 0.00 0.00 0.00 45 1010.0
20260503210322 51 69 2.6 7.0 0.00 0.00 0.00 47 1010.1
20260503205817 51 86 6.1 9.6 0.00 0.00 0.00 44 1010.0
20260503205314 51 49 4.3 12.2 0.00 0.00 0.00 44 1010.0
20260503204811 51 153 2.6 9.6 0.00 0.00 0.00 45 1009.9
20260503204309 51 96 7.0 13.0 0.00 0.00 0.00 43 1010.1
20260503203806 51 72 3.5 13.0 0.00 0.00 0.00 44 1010.0
20260503203303 51 66 5.2 8.7 0.00 0.00 0.00 44 1010.1
20260503202800 51 63 1.7 6.1 0.00 0.00 0.00 45 1010.0
20260503202258 52 83 6.1 7.0 0.00 0.00 0.00 43 1010.0